Date String (YYYY-MM-DD hh:mm:ss) UTC,Instrument flags,Ambient pressure (hPa),Sample flow (lpm),Bypass flow (lpm),Sample temperature (°C),Ambient temperature (°C),ASC tube jacket temperature (°C),LED temperature (°C),Box temperature (°C),Sample RH (%),Span deviation,Mass concentration (μg/m³),Mass concentration (μg/m³),Mass concentration (μg/m³)
DateTimeUTC,F1_M11,P_M11,Q1_M11,Q2_M11,T1_M11,T2_M11,T3_M11,T4_M11,T5_M11,U1_M11,ZSPAN_M11,X0_M11,X2_M11,X1_M11
2022-05-30 00:00:00,,0811.0,5.00,0.00,29.7,28.7,00.0,38.6,31.5,20.1,0000.0,0006.27,0002.67,0001.44
2022-05-30 00:01:00,,0811.0,5.01,0.00,29.7,28.7,00.0,38.6,31.5,20.7,0000.0,0006.26,0002.70,0001.44
2022-05-30 00:02:00,,0811.0,5.00,0.00,29.7,28.7,00.0,38.6,31.5,20.4,0000.0,0005.83,0002.70,0001.43
2022-05-30 00:03:00,,0811.0,5.00,0.00,29.7,28.7,00.0,38.6,31.5,20.6,0000.0,0005.79,0002.70,0001.44
2022-05-30 00:04:00,,0811.0,4.99,0.00,29.7,28.7,00.0,38.6,31.5,20.2,0000.0,0006.01,0002.75,0001.43
2022-05-30 00:05:00,,0811.0,5.01,0.00,29.7,28.7,00.0,38.6,31.5,20.3,0000.0,0006.01,0002.71,0001.42
2022-05-30 00:06:00,,0811.0,5.00,0.00,29.7,28.7,00.0,38.6,31.5,20.2,0000.0,0006.30,0002.69,0001.41
2022-05-30 00:07:00,,0811.0,4.99,0.00,29.7,28.7,00.0,38.6,31.5,20.5,0000.0,0006.31,0002.70,0001.42
2022-05-30 00:08:00,,0811.1,5.00,0.00,29.7,28.7,00.0,38.6,31.6,20.2,0000.0,0005.96,0002.66,0001.42
2022-05-30 00:09:00,,0811.2,4.99,0.00,29.7,28.7,00.0,38.7,31.6,20.3,0000.0,0005.76,0002.62,0001.41
2022-05-30 00:10:00,,0811.2,5.01,0.00,29.7,28.8,00.0,38.7,31.6,20.6,0000.0,0005.79,0002.60,0001.40
2022-05-30 00:11:00,,0811.2,5.00,0.00,29.8,28.8,00.0,38.7,31.6,20.6,0000.0,0005.86,0002.61,0001.38
2022-05-30 00:12:00,,0811.2,4.99,0.00,29.8,28.8,00.0,38.7,31.6,20.7,0000.0,0005.50,0002.48,0001.36
2022-05-30 00:13:00,,0811.2,5.01,0.00,29.8,28.8,00.0,38.7,31.6,20.3,0000.0,0005.16,0002.40,0001.34
2022-05-30 00:14:00,,0811.2,5.00,0.00,29.8,28.8,00.0,38.7,31.6,20.2,0000.0,0005.00,0002.33,0001.33
2022-05-30 00:15:00,,0811.1,4.99,0.00,29.8,28.8,00.0,38.7,31.6,20.0,0000.0,0004.61,0002.22,0001.33
2022-05-30 00:16:00,,0811.1,5.00,0.00,29.8,28.8,00.0,38.7,31.6,20.2,0000.0,0004.57,0002.22,0001.33
2022-05-30 00:17:00,,0811.1,5.00,0.00,29.8,28.8,00.0,38.7,31.6,19.9,0000.0,0004.16,0002.20,0001.32
2022-05-30 00:18:00,,0811.1,5.00,0.00,29.8,28.8,00.0,38.7,31.6,19.6,0000.0,0003.83,0002.11,0001.30
2022-05-30 00:19:00,,0811.2,5.01,0.00,29.8,28.8,00.0,38.7,31.6,19.8,0000.0,0003.66,0002.06,0001.28
2022-05-30 00:20:00,,0811.2,5.00,0.00,29.8,28.8,00.0,38.7,31.6,19.8,0000.0,0003.78,0002.09,0001.29
2022-05-30 00:21:00,,0811.2,5.00,0.00,29.8,28.8,00.0,38.7,31.6,20.0,0000.0,0003.71,0002.06,0001.30
2022-05-30 00:22:00,,0811.3,5.00,0.00,29.8,28.8,00.0,38.7,31.6,20.1,0000.0,0003.81,0002.08,0001.31
2022-05-30 00:23:00,,0811.3,5.01,0.00,29.8,28.8,00.0,38.7,31.6,20.4,0000.0,0004.08,0002.17,0001.32
2022-05-30 00:24:00,,0811.4,4.99,0.00,29.8,28.8,00.0,38.7,31.6,20.4,0000.0,0004.14,0002.19,0001.33
2022-05-30 00:25:00,,0811.4,4.99,0.00,29.8,28.8,00.0,38.7,31.6,20.6,0000.0,0004.33,0002.25,0001.33
2022-05-30 00:26:00,,0811.4,5.00,0.00,29.8,28.8,00.0,38.7,31.6,20.5,0000.0,0004.55,0002.33,0001.33
2022-05-30 00:27:00,,0811.4,5.01,0.00,29.8,28.8,00.0,38.7,31.6,20.3,0000.0,0005.11,0002.32,0001.33
2022-05-30 00:28:00,,0811.5,5.01,0.00,29.8,28.8,00.0,38.7,31.6,20.4,0000.0,0004.99,0002.26,0001.32
2022-05-30 00:29:00,,0811.7,5.00,0.00,29.8,28.8,00.0,38.7,31.6,20.0,0000.0,0005.02,0002.27,0001.32
2022-05-30 00:30:00,,0811.7,4.99,0.00,29.8,28.7,00.0,38.7,31.6,20.0,0000.0,0005.24,0002.37,0001.34
2022-05-30 00:31:00,,0811.7,5.00,0.00,29.8,28.7,00.0,38.7,31.6,20.2,0000.0,0005.19,0002.35,0001.33
2022-05-30 00:32:00,,0811.9,5.01,0.00,29.8,28.7,00.0,38.7,31.6,20.2,0000.0,0005.69,0002.36,0001.32
2022-05-30 00:33:00,,0811.9,4.99,0.00,29.8,28.7,00.0,38.7,31.6,20.2,0000.0,0006.54,0002.41,0001.32
2022-05-30 00:34:00,,0811.9,4.99,0.00,29.8,28.7,00.0,38.7,31.6,20.2,0000.0,0006.57,0002.41,0001.34
2022-05-30 00:35:00,,0812.0,5.02,0.00,29.8,28.7,00.0,38.7,31.6,20.1,0000.0,0006.61,0002.41,0001.34
2022-05-30 00:36:00,,0812.0,4.99,0.00,29.8,28.7,00.0,38.7,31.6,19.9,0000.0,0006.60,0002.39,0001.34
2022-05-30 00:37:00,,0812.0,5.00,0.00,29.8,28.7,00.0,38.7,31.6,20.0,0000.0,0006.41,0002.34,0001.33
2022-05-30 00:38:00,,0812.1,5.01,0.00,29.8,28.7,00.0,38.7,31.6,20.1,0000.0,0005.81,0002.31,0001.32
2022-05-30 00:39:00,,0812.1,5.00,0.00,29.8,28.7,00.0,38.7,31.6,20.1,0000.0,0005.80,0002.36,0001.33
2022-05-30 00:40:00,,0812.3,5.00,0.00,29.8,28.7,00.0,38.7,31.6,19.9,0000.0,0005.95,0002.39,0001.34
2022-05-30 00:41:00,,0812.4,5.00,0.00,29.8,28.7,00.0,38.7,31.6,20.0,0000.0,0005.75,0002.32,0001.33
2022-05-30 00:42:00,,0812.5,5.01,0.00,29.8,28.7,00.0,38.7,31.6,20.2,0000.0,0005.82,0002.29,0001.35
2022-05-30 00:43:00,,0812.7,5.00,0.00,29.8,28.7,00.0,38.7,31.6,20.4,0000.0,0005.69,0002.35,0001.40
2022-05-30 00:44:00,,0812.9,4.99,0.00,29.8,28.7,00.0,38.7,31.6,20.5,0000.0,0004.83,0002.34,0001.42
2022-05-30 00:45:00,,0813.0,5.00,0.00,29.8,28.7,00.0,38.7,31.6,20.4,0000.0,0004.69,0002.33,0001.43
2022-05-30 00:46:00,,0813.0,4.99,0.00,29.8,28.7,00.0,38.7,31.6,20.0,0000.0,0004.77,0002.40,0001.46
2022-05-30 00:47:00,,0813.1,5.00,0.00,29.8,28.7,00.0,38.7,31.6,19.6,0000.0,0004.61,0002.37,0001.45
2022-05-30 00:48:00,,0813.1,5.00,0.00,29.8,28.6,00.0,38.7,31.6,20.1,0000.0,0004.53,0002.31,0001.43
2022-05-30 00:49:00,,0813.1,5.00,0.00,29.8,28.6,00.0,38.7,31.5,20.7,0000.0,0004.56,0002.29,0001.37
2022-05-30 00:50:00,,0813.1,5.01,0.00,29.7,28.5,00.0,38.7,31.5,21.2,0000.0,0005.44,0002.25,0001.33
2022-05-30 00:51:00,,0813.4,5.00,0.00,29.7,28.5,00.0,38.7,31.5,21.3,0000.0,0005.56,0002.28,0001.29
2022-05-30 00:52:00,,0813.9,5.00,0.00,29.7,28.5,00.0,38.7,31.4,19.6,0000.0,0005.60,0002.21,0001.23
2022-05-30 00:53:00,,0813.5,5.00,0.00,29.7,28.4,00.0,38.7,31.4,20.0,0000.0,0005.45,0002.17,0001.16
2022-05-30 00:54:00,,0813.4,5.01,0.00,29.6,28.3,00.0,38.7,31.4,21.0,0000.0,0005.10,0002.10,0001.08
2022-05-30 00:55:00,,0813.4,5.00,0.00,29.6,28.3,00.0,38.7,31.4,21.3,0000.0,0005.07,0002.06,0001.02
2022-05-30 00:56:00,,0813.4,4.99,0.00,29.6,28.4,00.0,38.7,31.4,21.2,0000.0,0005.03,0002.01,0000.97
2022-05-30 00:57:00,,0813.4,5.01,0.00,29.6,28.4,00.0,38.7,31.4,21.0,0000.0,0004.98,0001.97,0000.92
2022-05-30 00:58:00,,0813.4,4.99,0.00,29.6,28.4,00.0,38.6,31.4,21.4,0000.0,0005.10,0001.94,0000.89
2022-05-30 00:59:00,,0813.4,5.00,0.00,29.6,28.3,00.0,38.6,31.4,22.0,0000.0,0005.24,0001.98,0000.88
